This is the latest recevied weather packets stored in our database for station/object WA4IKQ. If no packets are shown the sender has not sent any weather packets the latest 10 day(s).
| Time | Temp. | Humidity | Pressure | Rain* | Wind** | Luminosity | Snow |
|---|---|---|---|---|---|---|---|
| 1777824157 | 22.78° C | 67% | 1018.2 hPa | 0 mm | 3.13 m/s, 18° | - | - |
| 1777823497 | 22.78° C | 68% | 1018.2 hPa | 0 mm | 2.24 m/s, 18° | - | - |
| 1777822354 | 22.22° C | 71% | 1018.3 hPa | 0 mm | 3.58 m/s, 35° | - | - |
| 1777821957 | 21.67° C | 72% | 1018.2 hPa | 0 mm | 1.34 m/s, 27° | - | - |
| 1777820069 | 21.11° C | 75% | 1017.9 hPa | 0 mm | 1.79 m/s, 319° | - | - |
| 1777818752 | 21.11° C | 77% | 1017.6 hPa | 0 mm | 1.34 m/s, 34° | - | - |
| 1777818268 | 21.11° C | 77% | 1017.4 hPa | 0 mm | 4.02 m/s, 15° | - | - |
| 1777817968 | 21.11° C | 78% | 1017.5 hPa | 0 mm | 1.79 m/s, 301° | - | - |
| 1777816687 | 20° C | 82% | 1017.3 hPa | 0 mm | 1.34 m/s, 326° | - | - |
| 1777815569 | 20° C | 84% | 1017.2 hPa | 0 mm | 1.34 m/s, 3° | - | - |
| 1777814887 | 19.44° C | 85% | 1017.1 hPa | 0 mm | 3.13 m/s, 333° | - | - |
| 1777813301 | 18.89° C | 87% | 1016.7 hPa | 0 mm | 0.45 m/s, 311° | - | - |
| 1777812497 | 18.89° C | 87% | 1016.6 hPa | 0 mm | 2.68 m/s, 328° | - | - |
| 1777811326 | 18.33° C | 88% | 1016.4 hPa | 0 mm | 2.24 m/s, 359° | - | - |
| 1777810764 | 18.33° C | 88% | 1016.4 hPa | 0 mm | 1.79 m/s, 56° | - | - |
| 1777810409 | 18.33° C | 89% | 1016.2 hPa | 0 mm | 1.34 m/s, 27° | - | - |
| 1777809570 | 18.33° C | 89% | 1016.2 hPa | 0 mm | 1.34 m/s, 31° | - | - |
| 1777807944 | 18.33° C | 90% | 1015.9 hPa | 0 mm | 2.24 m/s, 353° | - | - |
| 1777807600 | 18.33° C | 90% | 1015.9 hPa | 0 mm | 0 m/s | - | - |
| 1777806447 | 18.33° C | 90% | 1015.8 hPa | 0 mm | 2.24 m/s, 311° | - | - |
| 1777805668 | 18.33° C | 90% | 1015.6 hPa | 0 mm | 2.24 m/s, 318° | - | - |
| 1777805267 | 18.33° C | 90% | 1015.7 hPa | 0 mm | 2.24 m/s, 332° | - | - |
| 1777804061 | 18.33° C | 90% | 1015.4 hPa | 0 mm | 1.79 m/s, 307° | - | - |
| 1777803866 | 18.33° C | 90% | 1015.4 hPa | 0 mm | 1.79 m/s, 307° | - | - |
| 1777803776 | 18.33° C | 90% | 1015.3 hPa | 0 mm | 0.45 m/s, 329° | - | - |
* Rain latest hour (hover to see other rain measurements)
** Current wind speed in m/s (hover to see current wind gust speed)